Regional Weather Roundup
Issued by NWS

Home | Current Version | Previous Version | Graphics & Text | Print | Product List | Glossary Off
Versions: 1 2 3 4 5 6 7 8 9 10 11 12 13 14 15 16 17 18 19 20 21 22 23 24 25 26 27 28 29 30 31 32 33 34 35 36 37 38 39 40 41 42 43 44 45 46 47 48 49 50

000
ASUS43 KLSX 092107
RWRMO

WEATHER SUMMARY FOR MISSOURI
NATIONAL WEATHER SERVICE SPRINGFIELD MO
400 PM CDT WED JUL 09 2014

NOTE: "FAIR" INDICATES FEW OR NO CLOUDS BELOW 12,000 FEET WITH NO
       SIGNIFICANT WEATHER AND/OR OBSTRUCTIONS TO VISIBILITY.
       CURRENT SKY AND/OR WEATHER CONDITIONS ARE NOT AVAILABLE FOR
       CHILLICOTHE AND FARMINGTON.

MOZ001>031-035>038-043-044-053-054-092200-
...NORTHERN AND WESTERN MISSOURI...

CITY           SKY/WX    TMP DP  RH WIND       PRES   REMARKS
KANSAS CTY INT MOSUNNY   83  60  45 W8        30.06S
KANSAS C DTWN  SUNNY     84  60  44 W7        30.04S
LEE`S SUMMIT   SUNNY     83  60  45 NW8       30.05F
ST JOSEPH      SUNNY     83  58  42 CALM      30.05F
CHILLICOTHE      N/A     82  58  43 NW6       30.06S
KIRKSVILLE     MOSUNNY   80  56  43 NW10      30.06R

$$
MOZ066>068-077>081-088>096-101>105-092200-
...SOUTHWEST MISSOURI...

CITY           SKY/WX    TMP DP  RH WIND       PRES   REMARKS
SPRINGFIELD    MOSUNNY   83  57  41 N7        30.05F
JOPLIN         SUNNY     86  51  29 N6        30.04F

$$
MOZ032>034-039>042-045>050-055>058-069>072-092200-
...CENTRAL MISSOURI...

CITY           SKY/WX    TMP DP  RH WIND       PRES   REMARKS
COLUMBIA       SUNNY     83  58  42 NW9       30.03S
JEFFERSON CITY SUNNY     83  59  44 W9        30.01F
ROLLA          MOSUNNY   83  59  44 NW13G20   30.02S
SEDALIA        MOSUNNY   82  64  54 NW9       30.05F
WHITEMAN AFB   SUNNY     82  57  42 NW12      30.04S
OSAGE BEACH    MOSUNNY   82  61  47 W3        30.03F

$$
MOZ051-052-059>065-092200-
...EAST CENTRAL MISSOURI...

CITY           SKY/WX    TMP DP  RH WIND       PRES   REMARKS
ST LOUIS INTL  MOSUNNY   84  62  47 N13G20    30.00S
SPIRIT OF STL  MOSUNNY   85  58  39 N12       29.98S
ST CHARLES     SUNNY     82  58  43 N12       29.99S

$$
MOZ072>076-082>087-097>100-106>115-092200-
...SOUTH CENTRAL AND SOUTHEAST MISSOURI...

CITY           SKY/WX    TMP DP  RH WIND       PRES   REMARKS
CAPE GIRARDEAU SUNNY     86  59  39 NW6       29.99F
FARMINGTON     MOSUNNY   82  61  47 NW6       30.04S
POPLAR BLUFF   MOSUNNY   85  59  41 NW7       29.99F
WEST PLAINS    MOSUNNY   81  59  47 CALM      30.06F

$$


USA.gov is the U.S. government's official web portal to all federal, state and local government web resources and services.